Location: Unspecified
(33.1972°N, 0.0000°E)
Time: 01:48:24
(UTC+00:00)

Hubble Space Telescope - Visible Passes

Search period start: 23 November 2019 00:00
Search period end: 03 December 2019 00:00
Orbit: 536 x 540 km, 28.5° (Epoch: 21 November)

Date Brightness Start Highest point End Pass type
(mag) Time Alt. Az. Time Alt. Az. Time Alt. Az.
23 Nov 1.8 17:20:13 10° WSW 17:24:04 39° S 17:27:56 10° ESE visible
23 Nov 2.1 19:01:07 10° WSW 19:04:09 35° SW 19:04:09 35° SW visible
24 Nov 1.8 18:50:33 10° WSW 18:54:15 37° SSW 18:54:15 37° SSW visible
25 Nov 1.9 18:40:00 10° WSW 18:43:44 33° S 18:44:25 31° S visible
26 Nov 2.3 18:29:27 10° WSW 18:33:04 30° SSW 18:34:39 22° SSE visible
27 Nov 2.6 18:18:58 10° WSW 18:22:25 26° SSW 18:25:00 14° SSE visible
28 Nov 2.9 18:08:31 10° WSW 18:11:45 22° SSW 18:14:59 10° SE visible
29 Nov 3.2 17:58:09 10° WSW 18:01:04 19° SSW 18:03:59 10° SSE visible
30 Nov 3.5 17:47:55 10° WSW 17:50:22 15° SSW 17:52:51 10° SSE visible
01 Dec 3.6 17:37:55 10° SW 17:39:41 12° SSW 17:41:27 10° S visible
